Weather History for KTTF - March, 2013

Change the Weather History Date:

Sunday, March 24, 2013

  Actual Average (WUND) Record (WUND)
Temperature  
Mean Temperature 32 °F -  
Max Temperature 37 °F - - (-1)
Min Temperature 28 °F - - (-1)
Degree Days  
Heating Degree Days 32    
Moisture  
Dew Point 26 °F    
Average Humidity 77    
Maximum Humidity 93    
Minimum Humidity 56    
Precipitation  
Precipitation 0.00 in - - ()
Sea Level Pressure  
Sea Level Pressure 29.82 in    
Wind  
Wind Speed 8 mph (NE)    
Max Wind Speed 21 mph    
Max Gust Speed 29 mph    
Visibility 10 miles    
Events      
Averages and records for this station are not official NWS values.
T = Trace of Precipitation, MM = Missing Value Source: NWS Daily Summary

Daily Weather History Graph

Daily Weather History Graph

Search for Another Location

Airport or City:

Trip Planner

Search our weather history database for the weather conditions in past years. The results will help you decide how hot, cold, wet, or windy it might be!

Date:

Astronomy

Mar. 24, 2013 Rise Set
Actual Time 7:29 AM EDT 7:50 PM EDT
Civil Twilight 7:01 AM EDT 8:18 PM EDT
Nautical Twilight 6:29 AM EDT 8:51 PM EDT
Astronomical Twilight 5:55 AM EDT 9:25 PM EDT
Moon 5:15 PM EDT (3/24) 5:41 AM EDT (3/24)
Length of Visible Light 13h 16m
Length of Day
12h 20m
Waxing Gibbous, 91% of the Moon is Illuminated
Mar 24
Waxing Gibbous
Mar 27
Full
Apr 3
Last Quarter
Apr 10
New
Apr 18
First Quarter

Hourly Weather History & Observations

Time (EDT) Temp. Windchill Dew Point Humidity Pressure Visibility Wind Dir Wind Speed Gust Speed Precip Events Conditions
12:12 AM 28.4 °F 22.2 °F 26.6 °F 93% 30.02 in 10.0 mi ENE 5.8 mph - N/A   Scattered Clouds
12:32 AM 30.2 °F 25.4 °F 26.6 °F 86% 30.00 in 10.0 mi ENE 4.6 mph - N/A   Scattered Clouds
12:52 AM 30.2 °F 24.3 °F 26.6 °F 86% 30.00 in 10.0 mi ENE 5.8 mph - N/A   Clear
1:12 AM 28.4 °F 24.6 °F 26.6 °F 93% 29.99 in 10.0 mi ENE 3.5 mph - N/A   Clear
1:32 AM 30.2 °F 25.4 °F 26.6 °F 86% 29.98 in 10.0 mi NE 4.6 mph - N/A   Clear
1:53 AM 30.2 °F - 26.6 °F 86% 29.99 in 10.0 mi Calm Calm - N/A   Clear
2:13 AM 28.4 °F - 26.6 °F 93% 30.01 in 10.0 mi Calm Calm - N/A   Clear
2:33 AM 28.4 °F - 26.6 °F 93% 30.00 in 10.0 mi Calm Calm - N/A   Clear
2:53 AM 28.4 °F 24.6 °F 26.6 °F 93% 29.99 in 10.0 mi NE 3.5 mph - N/A   Clear
3:13 AM 30.2 °F 26.7 °F 26.6 °F 86% 29.98 in 10.0 mi NE 3.5 mph - N/A   Clear
3:33 AM 28.4 °F - 26.6 °F 93% 30.00 in 10.0 mi Calm Calm - N/A   Clear
3:53 AM 28.4 °F - 26.6 °F 93% 29.99 in 10.0 mi Calm Calm - N/A   Clear
4:13 AM 28.4 °F - 26.6 °F 93% 30.00 in 10.0 mi Calm Calm - N/A   Clear
4:33 AM 28.4 °F 24.6 °F 26.6 °F 93% 29.99 in 10.0 mi NE 3.5 mph - N/A   Clear
4:53 AM 28.4 °F 24.6 °F 26.6 °F 93% 29.98 in 10.0 mi NE 3.5 mph - N/A   Clear
5:14 AM 28.4 °F 22.2 °F 26.6 °F 93% 29.97 in 10.0 mi NE 5.8 mph - N/A   Clear
5:34 AM 28.4 °F 23.3 °F 26.6 °F 93% 29.97 in 10.0 mi ENE 4.6 mph - N/A   Clear
5:54 AM 28.4 °F 24.6 °F 24.8 °F 86% 29.97 in 10.0 mi NE 3.5 mph - N/A   Clear
6:14 AM 28.4 °F 24.6 °F 26.6 °F 93% 29.97 in 10.0 mi NE 3.5 mph - N/A   Clear
6:34 AM 28.4 °F 24.6 °F 26.6 °F 93% 29.97 in 10.0 mi NE 3.5 mph - N/A   Clear
6:54 AM 28.4 °F 23.3 °F 26.6 °F 93% 29.97 in 10.0 mi NNE 4.6 mph - N/A   Clear
7:14 AM 28.4 °F 24.6 °F 26.6 °F 93% 29.96 in 10.0 mi NNE 3.5 mph - N/A   Clear
7:34 AM 28.4 °F 22.2 °F 26.6 °F 93% 29.95 in 10.0 mi NE 5.8 mph - N/A   Clear
7:54 AM 28.4 °F 22.2 °F 26.6 °F 93% 29.96 in 10.0 mi ENE 5.8 mph - N/A   Clear
8:15 AM 28.4 °F 22.2 °F 26.6 °F 93% 29.95 in 10.0 mi NE 5.8 mph - N/A   Clear
8:35 AM 30.2 °F 23.4 °F 26.6 °F 86% 29.95 in 10.0 mi ENE 6.9 mph - N/A   Clear
8:55 AM 30.2 °F 23.4 °F 26.6 °F 86% 29.94 in 10.0 mi ENE 6.9 mph - N/A   Scattered Clouds
9:15 AM 30.2 °F 21.3 °F 26.6 °F 86% 29.94 in 10.0 mi ENE 10.4 mph - N/A   Clear
9:35 AM 30.2 °F 22.6 °F 26.6 °F 86% 29.93 in 10.0 mi ENE 8.1 mph - N/A   Clear
9:55 AM 32.0 °F 22.5 °F 26.6 °F 80% 29.91 in 10.0 mi ENE 12.7 mph 17.3 mph N/A   Clear
10:15 AM 32.0 °F 23.6 °F 26.6 °F 80% 29.89 in 10.0 mi ENE 10.4 mph - N/A   Clear
10:35 AM 32.0 °F 22.1 °F 26.6 °F 80% 29.87 in 10.0 mi ENE 13.8 mph 18.4 mph N/A   Clear
10:55 AM 32.0 °F 23.6 °F 26.6 °F 80% 29.87 in 10.0 mi ENE 10.4 mph 20.7 mph N/A   Clear
11:15 AM 33.8 °F 25.8 °F 26.6 °F 75% 29.88 in 10.0 mi NE 10.4 mph 16.1 mph N/A   Clear
11:36 AM 33.8 °F 25.8 °F 26.6 °F 75% 29.88 in 10.0 mi ENE 10.4 mph - N/A   Clear
11:56 AM 35.6 °F 25.9 °F 26.6 °F 70% 29.86 in 10.0 mi NE 16.1 mph - N/A   Clear
12:16 PM 35.6 °F 26.2 °F 24.8 °F 65% 29.84 in 10.0 mi ENE 15.0 mph 24.2 mph N/A   Clear
12:36 PM 35.6 °F 26.2 °F 26.6 °F 70% 29.84 in 10.0 mi ENE 15.0 mph 23.0 mph N/A   Clear
12:56 PM 35.6 °F 25.9 °F 26.6 °F 70% 29.83 in 10.0 mi ENE 16.1 mph 20.7 mph N/A   Scattered Clouds
1:16 PM 35.6 °F 27.1 °F 28.4 °F 75% 29.81 in 10.0 mi ENE 12.7 mph 19.6 mph N/A   Scattered Clouds
1:36 PM 35.6 °F 26.6 °F 28.4 °F 75% 29.78 in 10.0 mi NE 13.8 mph 24.2 mph N/A   Scattered Clouds
1:51 PM 35.6 °F 27.1 °F 26.6 °F 70% 29.78 in 10.0 mi ENE 12.7 mph 24.2 mph N/A   Scattered Clouds
2:11 PM 35.6 °F 27.5 °F 26.6 °F 70% 29.78 in 10.0 mi ENE 11.5 mph 23.0 mph N/A   Scattered Clouds
2:31 PM 35.6 °F 25.5 °F 26.6 °F 70% 29.77 in 10.0 mi ENE 17.3 mph 23.0 mph N/A   Mostly Cloudy
2:52 PM 37.4 °F 29.3 °F 26.6 °F 65% 29.77 in 10.0 mi ENE 12.7 mph 18.4 mph N/A   Mostly Cloudy
3:12 PM 37.4 °F 27.5 °F 24.8 °F 60% 29.76 in 10.0 mi ENE 18.4 mph 23.0 mph N/A   Mostly Cloudy
3:32 PM 37.4 °F 28.9 °F 26.6 °F 65% 29.75 in 10.0 mi ENE 13.8 mph 20.7 mph N/A   Overcast
3:52 PM 37.4 °F 28.2 °F 24.8 °F 60% 29.74 in 10.0 mi ENE 16.1 mph 23.0 mph N/A   Overcast
4:12 PM 37.4 °F 28.5 °F 24.8 °F 60% 29.73 in 10.0 mi NE 15.0 mph 23.0 mph N/A   Overcast
4:32 PM 37.4 °F 28.5 °F 24.8 °F 60% 29.72 in 10.0 mi ENE 15.0 mph 19.6 mph N/A   Overcast
4:52 PM 37.4 °F 29.3 °F 24.8 °F 60% 29.71 in 10.0 mi ENE 12.7 mph 24.2 mph N/A   Overcast
5:12 PM 37.4 °F 30.3 °F 24.8 °F 60% 29.70 in 10.0 mi East 10.4 mph 21.9 mph N/A   Overcast
5:32 PM 37.4 °F 27.2 °F 24.8 °F 60% 29.68 in 10.0 mi ENE 19.6 mph 26.5 mph N/A   Overcast
5:52 PM 37.4 °F 27.8 °F 24.8 °F 60% 29.67 in 10.0 mi NE 17.3 mph 23.0 mph N/A   Overcast
6:13 PM 37.4 °F 28.2 °F 24.8 °F 60% 29.65 in 10.0 mi NE 16.1 mph 24.2 mph N/A   Overcast
6:33 PM 35.6 °F 24.5 °F 21.2 °F 56% 29.65 in 10.0 mi ENE 20.7 mph 28.8 mph N/A   Overcast
6:53 PM 35.6 °F 25.9 °F 21.2 °F 56% 29.65 in 10.0 mi NE 16.1 mph 21.9 mph N/A   Overcast
7:13 PM 35.6 °F 25.5 °F 21.2 °F 56% 29.64 in 10.0 mi NE 17.3 mph 26.5 mph N/A   Overcast
7:33 PM 35.6 °F 27.5 °F 24.8 °F 65% 29.64 in 10.0 mi NE 11.5 mph 20.7 mph N/A   Overcast
7:53 PM 33.8 °F 24.8 °F 24.8 °F 70% 29.64 in 10.0 mi NE 12.7 mph 21.9 mph N/A   Overcast
8:13 PM 33.8 °F 24.3 °F 24.8 °F 70% 29.63 in 10.0 mi NE 13.8 mph 23.0 mph N/A   Overcast
8:33 PM 33.8 °F 25.3 °F 24.8 °F 70% 29.63 in 10.0 mi NE 11.5 mph 21.9 mph N/A   Overcast
8:53 PM 33.8 °F 24.8 °F 24.8 °F 70% 29.63 in 10.0 mi NE 12.7 mph 20.7 mph N/A   Overcast
9:14 PM 33.8 °F 23.9 °F 24.8 °F 70% 29.63 in 10.0 mi NE 15.0 mph 20.7 mph N/A   Overcast
9:34 PM 33.8 °F 24.8 °F 24.8 °F 70% 29.62 in 10.0 mi NE 12.7 mph 18.4 mph N/A   Overcast
9:54 PM 33.8 °F 24.8 °F 24.8 °F 70% 29.61 in 10.0 mi NE 12.7 mph 21.9 mph N/A   Overcast
10:14 PM 33.8 °F 24.8 °F 26.6 °F 75% 29.61 in 10.0 mi NE 12.7 mph 24.2 mph N/A   Overcast
10:34 PM 33.8 °F 25.3 °F 26.6 °F 75% 29.60 in 10.0 mi NE 11.5 mph - N/A   Overcast
10:54 PM 33.8 °F 24.3 °F 26.6 °F 75% 29.60 in 10.0 mi NE 13.8 mph 18.4 mph N/A   Overcast
11:14 PM 33.8 °F 25.8 °F 26.6 °F 75% 29.59 in 10.0 mi NE 10.4 mph 17.3 mph N/A   Overcast
11:34 PM 33.8 °F 25.8 °F 26.6 °F 75% 29.58 in 10.0 mi NE 10.4 mph 18.4 mph N/A   Overcast
11:54 PM 33.8 °F 24.8 °F 24.8 °F 70% 29.58 in 10.0 mi NE 12.7 mph 21.9 mph N/A   Overcast